When you browse on this site, cookies collect data to enhance your experience and personalize the content and advertising you see.
Visit our Privacy Policy to learn more. By continuing to use the site, you agree to this use of cookies and data.
  • In United Kingdom
  • List of Countries
  • For 7 days
  • Water Temperature
  • Satellite Maps
  • Weather Map
  • Weather Widgets
  • user-avatar
    Login

    Hourly Weather Tergachi

    Today, 26 March, Tuesday

    Time Temperature Precipitation Wind Pressure Humidity
    00:00 +13°C° 0 mm 4 mps 698 mmHg 37%
    01:00 +13°C° 0 mm 4 mps 698 mmHg 36%
    02:00 +12°C° 0 mm 4 mps 699 mmHg 35%
    03:00 +12°C° 0 mm 4 mps 699 mmHg 34%
    04:00 +12°C° 0 mm 4 mps 698 mmHg 34%
    05:00 +12°C° 0 mm 4 mps 697 mmHg 31%
    06:00 +13°C° 0 mm 4 mps 697 mmHg 30%
    07:00 +14°C° 0 mm 4 mps 698 mmHg 29%
    08:00 +15°C° 0 mm 4 mps 698 mmHg 28%
    09:00 +17°C° 0 mm 4 mps 698 mmHg 26%
    10:00 +19°C° 0 mm 3 mps 697 mmHg 24%
    11:00 +21°C° 0 mm 3 mps 697 mmHg 22%
    12:00 +21°C° 0 mm 3 mps 697 mmHg 20%
    13:00 +22°C° 0 mm 3 mps 696 mmHg 19%
    14:00 +24°C° 0 mm 3 mps 696 mmHg 18%
    15:00 +24°C° 0 mm 3 mps 696 mmHg 18%
    16:00 +24°C° 0 mm 3 mps 696 mmHg 19%
    17:00 +24°C° 0 mm 2 mps 695 mmHg 19%
    18:00 +23°C° 0 mm 2 mps 695 mmHg 23%
    19:00 +21°C° 0 mm 2 mps 695 mmHg 26%
    20:00 +19°C° 0 mm 2 mps 696 mmHg 29%
    21:00 +19°C° 0 mm 2 mps 695 mmHg 30%
    22:00 +19°C° 0 mm 2 mps 695 mmHg 30%
    23:00 +18°C° 0 mm 2 mps 695 mmHg 31%

    Tomorrow, 27 March, Wednesday

    Time Temperature Precipitation Wind Pressure Humidity
    00:00 +18°C° 0.1 mm 3 mps 695 mmHg 32%
    01:00 +18°C° 0.1 mm 3 mps 695 mmHg 33%
    02:00 +17°C° 0.1 mm 4 mps 695 mmHg 33%
    03:00 +17°C° 0.1 mm 3 mps 695 mmHg 36%
    04:00 +17°C° 0.1 mm 3 mps 695 mmHg 39%
    05:00 +16°C° 0.1 mm 3 mps 695 mmHg 41%
    06:00 +17°C° 0 mm 3 mps 695 mmHg 41%
    07:00 +17°C° 0 mm 3 mps 695 mmHg 41%
    08:00 +17°C° 0 mm 3 mps 696 mmHg 41%
    09:00 +18°C° 0 mm 3 mps 695 mmHg 36%
    10:00 +20°C° 0 mm 3 mps 695 mmHg 31%
    11:00 +21°C° 0 mm 3 mps 695 mmHg 27%
    12:00 +23°C° 0 mm 2 mps 695 mmHg 25%
    13:00 +23°C° 0 mm 2 mps 694 mmHg 24%
    14:00 +24°C° 0 mm 1 mps 694 mmHg 22%
    15:00 +23°C° 0 mm 1 mps 694 mmHg 25%
    16:00 +23°C° 0 mm 2 mps 694 mmHg 27%
    17:00 +23°C° 0 mm 2 mps 694 mmHg 30%
    18:00 +21°C° 0.3 mm 2 mps 694 mmHg 36%
    19:00 +20°C° 0.3 mm 2 mps 694 mmHg 42%
    20:00 +19°C° 0.3 mm 2 mps 694 mmHg 47%
    21:00 +18°C° 1 mm 2 mps 694 mmHg 52%
    22:00 +17°C° 1 mm 3 mps 694 mmHg 57%
    23:00 +17°C° 1 mm 3 mps 694 mmHg 62%

    Day after tomorrow, 28 March, Thursday

    Time Temperature Precipitation Wind Pressure Humidity
    00:00 +16°C° 0 mm 2 mps 694 mmHg 62%
    01:00 +16°C° 0 mm 2 mps 694 mmHg 62%
    02:00 +16°C° 0 mm 1 mps 694 mmHg 62%
    03:00 +16°C° 0.2 mm 1 mps 694 mmHg 65%
    04:00 +16°C° 0.2 mm 1 mps 694 mmHg 68%
    05:00 +15°C° 0.2 mm 1 mps 694 mmHg 71%
    06:00 +15°C° 0.1 mm 1 mps 695 mmHg 70%
    07:00 +16°C° 0.1 mm 1 mps 695 mmHg 69%
    08:00 +16°C° 0.1 mm 1 mps 695 mmHg 68%
    09:00 +16°C° 0 mm 1 mps 695 mmHg 64%
    10:00 +18°C° 0 mm 1 mps 696 mmHg 61%
    11:00 +19°C° 0 mm 1 mps 696 mmHg 57%
    12:00 +20°C° 0 mm 1 mps 696 mmHg 53%
    13:00 +20°C° 0 mm 2 mps 696 mmHg 50%
    14:00 +21°C° 0 mm 2 mps 696 mmHg 46%
    15:00 +22°C° 0 mm 1 mps 696 mmHg 47%
    16:00 +22°C° 0 mm 1 mps 696 mmHg 47%
    17:00 +22°C° 0 mm 1 mps 696 mmHg 47%
    18:00 +21°C° 0.1 mm 1 mps 696 mmHg 50%
    19:00 +19°C° 0.1 mm 2 mps 696 mmHg 53%
    20:00 +19°C° 0.1 mm 2 mps 696 mmHg 57%
    21:00 +18°C° 0 mm 2 mps 696 mmHg 56%
    22:00 +18°C° 0 mm 3 mps 696 mmHg 55%
    23:00 +18°C° 0 mm 3 mps 696 mmHg 54%

    29 March, Friday

    Time Temperature Precipitation Wind Pressure Humidity
    00:00 +17°C° 0 mm 3 mps 695 mmHg 52%
    01:00 +17°C° 0 mm 3 mps 695 mmHg 51%
    02:00 +16°C° 0 mm 3 mps 694 mmHg 49%
    03:00 +16°C° 0 mm 3 mps 694 mmHg 47%
    04:00 +16°C° 0 mm 3 mps 693 mmHg 46%
    05:00 +16°C° 0 mm 3 mps 692 mmHg 44%
    06:00 +16°C° 0 mm 3 mps 692 mmHg 41%
    07:00 +17°C° 0 mm 3 mps 692 mmHg 38%
    08:00 +18°C° 0 mm 2 mps 692 mmHg 35%
    09:00 +20°C° 0 mm 2 mps 692 mmHg 32%
    10:00 +21°C° 0 mm 2 mps 692 mmHg 29%
    11:00 +23°C° 0 mm 1 mps 692 mmHg 26%
    12:00 +24°C° 0 mm 2 mps 692 mmHg 25%
    13:00 +24°C° 0 mm 2 mps 692 mmHg 24%
    14:00 +25°C° 0 mm 3 mps 692 mmHg 23%
    15:00 +24°C° 0 mm 3 mps 692 mmHg 25%
    16:00 +22°C° 0 mm 4 mps 692 mmHg 28%
    17:00 +22°C° 0 mm 4 mps 692 mmHg 31%
    18:00 +21°C° 0 mm 4 mps 693 mmHg 37%
    19:00 +20°C° 0 mm 3 mps 693 mmHg 43%
    20:00 +19°C° 0 mm 3 mps 694 mmHg 49%
    21:00 +18°C° 0 mm 2 mps 694 mmHg 54%
    22:00 +17°C° 0 mm 2 mps 693 mmHg 58%
    23:00 +16°C° 0 mm 2 mps 693 mmHg 62%

    30 March, Saturday

    Time Temperature Precipitation Wind Pressure Humidity
    00:00 +16°C° 0 mm 1 mps 693 mmHg 66%
    01:00 +15°C° 0 mm 1 mps 693 mmHg 69%
    02:00 +15°C° 0 mm 1 mps 693 mmHg 72%
    03:00 +14°C° 1 mm 2 mps 694 mmHg 76%
    04:00 +13°C° 1 mm 2 mps 694 mmHg 79%
    05:00 +12°C° 1 mm 3 mps 695 mmHg 83%
    06:00 +12°C° 0.5 mm 3 mps 696 mmHg 79%
    07:00 +12°C° 0.5 mm 3 mps 696 mmHg 75%
    08:00 +13°C° 0.5 mm 2 mps 697 mmHg 71%
    09:00 +14°C° 0.2 mm 2 mps 698 mmHg 66%
    10:00 +15°C° 0.2 mm 2 mps 698 mmHg 62%
    11:00 +15°C° 0.2 mm 2 mps 699 mmHg 58%
    12:00 +16°C° 0.3 mm 3 mps 699 mmHg 56%
    13:00 +16°C° 0.3 mm 3 mps 699 mmHg 54%
    14:00 +15°C° 0.3 mm 4 mps 699 mmHg 52%
    15:00 +15°C° 0.1 mm 4 mps 699 mmHg 53%
    16:00 +15°C° 0.1 mm 4 mps 699 mmHg 54%
    17:00 +14°C° 0.1 mm 5 mps 699 mmHg 55%
    18:00 +14°C° 0 mm 5 mps 700 mmHg 57%
    19:00 +13°C° 0 mm 4 mps 700 mmHg 58%
    20:00 +12°C° 0 mm 4 mps 700 mmHg 60%
    21:00 +12°C° 0 mm 4 mps 700 mmHg 59%
    22:00 +12°C° 0 mm 3 mps 700 mmHg 58%
    23:00 +11°C° 0 mm 3 mps 700 mmHg 57%

    31 March, Sunday

    Time Temperature Precipitation Wind Pressure Humidity
    00:00 +11°C° 0 mm 3 mps 700 mmHg 56%
    01:00 +11°C° 0 mm 3 mps 700 mmHg 55%
    02:00 +11°C° 0 mm 3 mps 700 mmHg 53%
    03:00 +10°C° 0 mm 3 mps 699 mmHg 53%
    04:00 +10°C° 0 mm 3 mps 699 mmHg 52%
    05:00 +10°C° 0 mm 3 mps 699 mmHg 51%
    06:00 +11°C° 0 mm 3 mps 699 mmHg 48%
    07:00 +12°C° 0 mm 3 mps 699 mmHg 46%
    08:00 +13°C° 0 mm 2 mps 699 mmHg 43%
    09:00 +15°C° 0 mm 2 mps 699 mmHg 41%
    10:00 +16°C° 0 mm 2 mps 699 mmHg 39%
    11:00 +17°C° 0 mm 2 mps 698 mmHg 38%
    12:00 +18°C° 0 mm 2 mps 698 mmHg 35%
    13:00 +19°C° 0 mm 2 mps 698 mmHg 33%
    14:00 +19°C° 0 mm 2 mps 698 mmHg 31%
    15:00 +19°C° 0 mm 3 mps 698 mmHg 29%
    16:00 +20°C° 0 mm 3 mps 698 mmHg 28%
    17:00 +20°C° 0 mm 4 mps 698 mmHg 27%
    18:00 +19°C° 0 mm 4 mps 699 mmHg 29%
    19:00 +18°C° 0 mm 4 mps 700 mmHg 32%
    20:00 +18°C° 0 mm 3 mps 700 mmHg 34%
    21:00 +17°C° 0 mm 3 mps 700 mmHg 38%
    22:00 +14°C° 0 mm 3 mps 700 mmHg 42%
    23:00 +13°C° 0 mm 3 mps 700 mmHg 47%
    Show more